Greenville, TX

2:01 PM CDT on March 29, 2017 (GMT -0500)
Majors

Weather History for KGVT - January, 2014

Change the Weather History Date:

Wednesday, January 8, 2014

  Actual Average Record
Temperature  
Mean Temperature 42 °F -  
Max Temperature 46 °F 55 °F 75 °F (2006)
Min Temperature 37 °F 38 °F 15 °F (2017)
Degree Days  
Heating Degree Days 24    
Moisture  
Dew Point 31 °F    
Average Humidity 69    
Maximum Humidity 81    
Minimum Humidity 38    
Precipitation  
Precipitation 0.00 in - - ()
Sea Level Pressure  
Sea Level Pressure 30.22 in    
Wind  
Wind Speed 10 mph (SE)    
Max Wind Speed 16 mph    
Max Gust Speed 21 mph    
Visibility 10 miles    
Events Rain    
Averages and records for this station are not official NWS values.
T = Trace of Precipitation, MM = Missing Value Source: NWS Daily Summary

Daily Weather History Graph

Daily Weather History Graph

Search for Another Location

Airport or City:

Trip Planner

Search our weather history database for the weather conditions in past years. The results will help you decide how hot, cold, wet, or windy it might be!

Date:

Astronomy

Jan. 08, 2014 Rise Set
Actual Time 7:28 AM CST 5:34 PM CST
Civil Twilight 7:01 AM CST 6:01 PM CST
Nautical Twilight 6:30 AM CST 6:31 PM CST
Astronomical Twilight 6:00 AM CST 7:01 PM CST
Moon 12:17 PM CST (1/8) 12:45 AM CST (1/8)
Length of Visible Light 11h 00m
Length of Day
10h 05m
First Quarter, 56% of the Moon is Illuminated
Jan 8
First Quarter
Jan 15
Full
Jan 23
Last Quarter
Jan 30
New
Feb 6
First Quarter

Hourly Weather History & Observations

Time (CST) Temp. Windchill Dew Point Humidity Pressure Visibility Wind Dir Wind Speed Gust Speed Precip Events Conditions
12:15 AM 37.4 °F 30.8 °F 14.0 °F 38% 30.30 in 10.0 mi SSE 9.2 mph - N/A   Overcast
12:55 AM 37.4 °F 29.8 °F 14.0 °F 38% 30.29 in 10.0 mi South 11.5 mph - N/A   Overcast
1:15 AM 37.4 °F 29.3 °F 14.0 °F 38% 30.29 in 10.0 mi South 12.7 mph 18.4 mph N/A   Overcast
1:35 AM 37.4 °F 28.5 °F 17.6 °F 45% 30.28 in 10.0 mi South 15.0 mph - N/A   Overcast
1:55 AM 37.4 °F 30.3 °F 19.4 °F 48% 30.29 in 10.0 mi South 10.4 mph 17.3 mph N/A   Overcast
2:15 AM 37.4 °F 29.8 °F 19.4 °F 48% 30.29 in 10.0 mi South 11.5 mph - N/A   Overcast
2:35 AM 37.4 °F 30.3 °F 21.2 °F 52% 30.29 in 10.0 mi South 10.4 mph 17.3 mph N/A   Overcast
2:55 AM 37.4 °F 29.8 °F 23.0 °F 56% 30.29 in 10.0 mi South 11.5 mph 18.4 mph N/A   Overcast
3:15 AM 37.4 °F 29.3 °F 23.0 °F 56% 30.28 in 10.0 mi SSE 12.7 mph - N/A   Overcast
3:35 AM 37.4 °F 29.8 °F 26.6 °F 65% 30.27 in 10.0 mi South 11.5 mph 16.1 mph N/A   Overcast
3:55 AM 37.4 °F 30.3 °F 26.6 °F 65% 30.27 in 10.0 mi South 10.4 mph 16.1 mph N/A   Overcast
4:15 AM 37.4 °F 29.3 °F 28.4 °F 70% 30.27 in 10.0 mi SSE 12.7 mph - N/A   Overcast
4:35 AM 37.4 °F 28.2 °F 28.4 °F 70% 30.26 in 10.0 mi SSE 16.1 mph - N/A   Overcast
4:55 AM 37.4 °F 28.9 °F 30.2 °F 75% 30.26 in 10.0 mi South 13.8 mph 18.4 mph N/A   Overcast
5:15 AM 37.4 °F 29.3 °F 30.2 °F 75% 30.26 in 10.0 mi South 12.7 mph 18.4 mph N/A   Overcast
5:35 AM 37.4 °F 28.5 °F 30.2 °F 75% 30.24 in 10.0 mi SSE 15.0 mph 19.6 mph N/A   Overcast
5:55 AM 37.4 °F 29.3 °F 30.2 °F 75% 30.24 in 10.0 mi South 12.7 mph 20.7 mph N/A   Overcast
6:15 AM 37.4 °F 29.8 °F 30.2 °F 75% 30.25 in 10.0 mi South 11.5 mph 15.0 mph N/A   Overcast
6:35 AM 37.4 °F 30.8 °F 30.2 °F 75% 30.25 in 10.0 mi SSE 9.2 mph - N/A   Overcast
6:55 AM 37.4 °F 28.5 °F 32.0 °F 81% 30.24 in 10.0 mi SSE 15.0 mph 19.6 mph N/A   Overcast
7:15 AM 37.4 °F 28.9 °F 32.0 °F 81% 30.24 in 10.0 mi South 13.8 mph 19.6 mph N/A   Overcast
7:35 AM 37.4 °F 30.3 °F 32.0 °F 81% 30.25 in 10.0 mi South 10.4 mph - N/A   Overcast
7:55 AM 37.4 °F 30.3 °F 30.2 °F 75% 30.25 in 10.0 mi SSE 10.4 mph - N/A   Overcast
8:15 AM 37.4 °F 30.8 °F 30.2 °F 75% 30.26 in 10.0 mi SE 9.2 mph - N/A   Overcast
8:35 AM 37.4 °F 29.8 °F 30.2 °F 75% 30.27 in 10.0 mi SE 11.5 mph 16.1 mph N/A   Overcast
8:55 AM 37.4 °F 30.3 °F 30.2 °F 75% 30.27 in 10.0 mi SSE 10.4 mph - N/A   Overcast
9:15 AM 37.4 °F 29.8 °F 32.0 °F 81% 30.28 in 7.0 mi SSE 11.5 mph - N/A   Overcast
9:35 AM 37.4 °F 30.8 °F 32.0 °F 81% 30.28 in 7.0 mi SE 9.2 mph - N/A   Overcast
9:55 AM 37.4 °F 30.3 °F 32.0 °F 81% 30.28 in 10.0 mi SSE 10.4 mph - N/A   Overcast
10:15 AM 37.4 °F 28.5 °F 32.0 °F 81% 30.27 in 5.0 mi SSE 15.0 mph 19.6 mph N/A   Haze
10:35 AM 39.2 °F 31.2 °F 32.0 °F 75% 30.27 in 10.0 mi SSE 13.8 mph 19.6 mph N/A   Overcast
10:55 AM 41.0 °F 34.7 °F 32.0 °F 70% 30.27 in 7.0 mi SSE 10.4 mph - N/A   Overcast
11:15 AM 39.2 °F 31.2 °F 33.8 °F 81% 30.25 in 5.0 mi SSE 13.8 mph 17.3 mph N/A   Haze
11:35 AM 41.0 °F 35.8 °F 32.0 °F 70% 30.24 in 10.0 mi ESE 8.1 mph - N/A   Overcast
11:55 AM 41.0 °F 34.3 °F 32.0 °F 70% 30.22 in 7.0 mi SE 11.5 mph - N/A   Overcast
12:15 PM 41.0 °F 35.2 °F 32.0 °F 70% 30.21 in 10.0 mi SE 9.2 mph - N/A   Overcast
12:35 PM 42.8 °F 36.6 °F 32.0 °F 66% 30.20 in 10.0 mi SE 11.5 mph - N/A   Overcast
12:55 PM 41.0 °F 35.2 °F 33.8 °F 76% 30.19 in 10.0 mi SE 9.2 mph - N/A   Overcast
1:15 PM 42.8 °F 37.0 °F 33.8 °F 70% 30.18 in 7.0 mi SE 10.4 mph - N/A   Overcast
1:35 PM 42.8 °F 38.0 °F 33.8 °F 70% 30.16 in 10.0 mi SE 8.1 mph - N/A   Overcast
1:55 PM 42.8 °F 37.0 °F 35.6 °F 76% 30.16 in 10.0 mi SE 10.4 mph 16.1 mph N/A   Overcast
2:15 PM 42.8 °F 37.0 °F 35.6 °F 76% 30.16 in 10.0 mi SE 10.4 mph - N/A   Overcast
2:35 PM 42.8 °F 36.2 °F 35.6 °F 76% 30.15 in 10.0 mi SE 12.7 mph - N/A   Overcast
2:55 PM 44.6 °F 38.4 °F 35.6 °F 71% 30.15 in 10.0 mi SE 12.7 mph - N/A   Overcast
3:15 PM 42.8 °F 36.6 °F 35.6 °F 76% 30.14 in 10.0 mi SE 11.5 mph - N/A   Overcast
3:35 PM 44.6 °F 39.2 °F 33.8 °F 66% 30.15 in 10.0 mi SE 10.4 mph - N/A   Overcast
3:55 PM 44.6 °F 39.7 °F 33.8 °F 66% 30.15 in 10.0 mi SSE 9.2 mph - N/A   Overcast
4:15 PM 44.6 °F 38.8 °F 33.8 °F 66% 30.14 in 10.0 mi SE 11.5 mph - N/A   Overcast
4:35 PM 46.4 °F 41.1 °F 33.8 °F 62% 30.14 in 10.0 mi SSE 11.5 mph - N/A   Overcast
4:55 PM 46.4 °F 42.4 °F 33.8 °F 62% 30.15 in 10.0 mi SE 8.1 mph - N/A   Overcast
5:15 PM 46.4 °F 43.5 °F 33.8 °F 62% 30.15 in 10.0 mi ESE 5.8 mph - N/A   Overcast
5:35 PM 46.4 °F 42.4 °F 33.8 °F 62% 30.16 in 10.0 mi SE 8.1 mph - N/A   Overcast
5:55 PM 46.4 °F 42.9 °F 35.6 °F 66% 30.16 in 10.0 mi SSE 6.9 mph - N/A   Overcast
6:15 PM 46.4 °F 43.5 °F 35.6 °F 66% 30.16 in 10.0 mi SE 5.8 mph - N/A   Overcast
6:35 PM 46.4 °F 44.3 °F 35.6 °F 66% 30.17 in 10.0 mi SE 4.6 mph - N/A   Overcast
6:55 PM 46.4 °F 45.2 °F 35.6 °F 66% 30.18 in 10.0 mi ESE 3.5 mph - N/A   Overcast
7:15 PM 46.4 °F 42.9 °F 35.6 °F 66% 30.18 in 10.0 mi ESE 6.9 mph - N/A   Overcast
7:35 PM 46.4 °F 45.2 °F 35.6 °F 66% 30.19 in 10.0 mi East 3.5 mph - N/A   Overcast
7:55 PM 46.4 °F 42.9 °F 35.6 °F 66% 30.19 in 10.0 mi SE 6.9 mph - N/A   Overcast
8:15 PM 46.4 °F 45.2 °F 37.4 °F 71% 30.20 in 10.0 mi ESE 3.5 mph - N/A   Overcast
8:35 PM 46.4 °F 45.2 °F 37.4 °F 71% 30.20 in 10.0 mi ESE 3.5 mph - N/A   Overcast
8:55 PM 44.6 °F 42.2 °F 33.8 °F 66% 30.21 in 10.0 mi East 4.6 mph - N/A   Overcast
9:15 PM 42.8 °F 40.1 °F 33.8 °F 70% 30.21 in 10.0 mi NE 4.6 mph - N/A Rain Rain
9:35 PM 42.8 °F 39.3 °F 33.8 °F 70% 30.22 in 10.0 mi ENE 5.8 mph - N/A   Overcast
9:55 PM 42.8 °F 40.1 °F 35.6 °F 76% 30.22 in 10.0 mi ENE 4.6 mph - N/A   Overcast
10:15 PM 42.8 °F 41.1 °F 35.6 °F 76% 30.22 in 10.0 mi ENE 3.5 mph - N/A Rain Rain
10:35 PM 41.0 °F 38.0 °F 35.6 °F 81% 30.21 in 7.0 mi ENE 4.6 mph - N/A   Overcast
10:55 PM 41.0 °F 39.0 °F 35.6 °F 81% 30.22 in 10.0 mi ENE 3.5 mph - N/A   Overcast
11:15 PM 41.0 °F 39.0 °F 35.6 °F 81% 30.21 in 10.0 mi ENE 3.5 mph - N/A   Light Drizzle
11:35 PM 41.0 °F 39.0 °F 35.6 °F 81% 30.21 in 10.0 mi NE 3.5 mph - N/A   Overcast
11:55 PM 41.0 °F 37.1 °F 35.6 °F 81% 30.20 in 10.0 mi ENE 5.8 mph - N/A   Overcast